• In Deutschland
  • Länderverzeichnis
  • Für 7 Tage
  • Wassertemperatur
  • Satellitenkarten
  • Wetterkarte
  • Widgets
  • user-avatar
    Anmelden

    Stündliche Wetter Julara

    Heute, 26 September, Dienstag

    Zeit Temperatur Niederschläge Wind Luftdruck Luftfeuchtigkeit
    00:00 +25°C° 0 mm 5 m/S 714 mmHg 20%
    01:00 +23°C° 0 mm 5 m/S 714 mmHg 22%
    02:00 +22°C° 0 mm 4 m/S 714 mmHg 24%
    03:00 +22°C° 0 mm 4 m/S 713 mmHg 25%
    04:00 +21°C° 0 mm 4 m/S 713 mmHg 26%
    05:00 +21°C° 0 mm 3 m/S 713 mmHg 28%
    06:00 +21°C° 0 mm 3 m/S 714 mmHg 29%
    07:00 +25°C° 0 mm 5 m/S 714 mmHg 26%
    08:00 +27°C° 0 mm 7 m/S 715 mmHg 23%
    09:00 +31°C° 0 mm 10 m/S 715 mmHg 21%
    10:00 +33°C° 0 mm 11 m/S 715 mmHg 19%
    11:00 +34°C° 0 mm 11 m/S 715 mmHg 18%
    12:00 +37°C° 0 mm 12 m/S 715 mmHg 16%
    13:00 +38°C° 0 mm 12 m/S 714 mmHg 15%
    14:00 +38°C° 0 mm 12 m/S 714 mmHg 14%
    15:00 +38°C° 0 mm 12 m/S 714 mmHg 14%
    16:00 +37°C° 0 mm 11 m/S 714 mmHg 15%
    17:00 +35°C° 0 mm 9 m/S 714 mmHg 16%
    18:00 +34°C° 0 mm 8 m/S 714 mmHg 17%
    19:00 +32°C° 0 mm 7 m/S 715 mmHg 19%
    20:00 +29°C° 0 mm 6 m/S 715 mmHg 22%
    21:00 +28°C° 0 mm 5 m/S 715 mmHg 26%
    22:00 +27°C° 0 mm 5 m/S 715 mmHg 28%
    23:00 +26°C° 0 mm 4 m/S 715 mmHg 30%

    Morgen, 27 September, Mittwoch

    Zeit Temperatur Niederschläge Wind Luftdruck Luftfeuchtigkeit
    00:00 +25°C° 0 mm 4 m/S 715 mmHg 32%
    01:00 +25°C° 0 mm 4 m/S 715 mmHg 34%
    02:00 +23°C° 0 mm 4 m/S 715 mmHg 36%
    03:00 +22°C° 0 mm 3 m/S 714 mmHg 37%
    04:00 +22°C° 0 mm 3 m/S 715 mmHg 39%
    05:00 +21°C° 0 mm 3 m/S 715 mmHg 40%
    06:00 +20°C° 0 mm 3 m/S 715 mmHg 42%
    07:00 +21°C° 0 mm 3 m/S 715 mmHg 38%
    08:00 +24°C° 0 mm 3 m/S 716 mmHg 35%
    09:00 +25°C° 0 mm 3 m/S 716 mmHg 31%
    10:00 +26°C° 0 mm 3 m/S 716 mmHg 31%
    11:00 +27°C° 0 mm 4 m/S 716 mmHg 31%
    12:00 +28°C° 0 mm 4 m/S 716 mmHg 31%
    13:00 +27°C° 0,3 mm 6 m/S 716 mmHg 38%
    14:00 +26°C° 0,3 mm 8 m/S 715 mmHg 45%
    15:00 +24°C° 0,3 mm 10 m/S 715 mmHg 52%
    16:00 +23°C° 0,9 mm 10 m/S 715 mmHg 56%
    17:00 +22°C° 0,9 mm 10 m/S 715 mmHg 60%
    18:00 +21°C° 0,9 mm 9 m/S 716 mmHg 65%
    19:00 +21°C° 0,3 mm 7 m/S 716 mmHg 61%
    20:00 +21°C° 0,3 mm 5 m/S 717 mmHg 58%
    21:00 +21°C° 0,3 mm 3 m/S 717 mmHg 54%
    22:00 +21°C° 0 mm 3 m/S 717 mmHg 52%
    23:00 +21°C° 0 mm 3 m/S 717 mmHg 50%

    übermorgen, 28 September, Donnerstag

    Zeit Temperatur Niederschläge Wind Luftdruck Luftfeuchtigkeit
    00:00 +21°C° 0 mm 3 m/S 717 mmHg 48%
    01:00 +20°C° 0,8 mm 4 m/S 717 mmHg 51%
    02:00 +19°C° 0,8 mm 4 m/S 717 mmHg 54%
    03:00 +18°C° 0,8 mm 4 m/S 716 mmHg 57%
    04:00 +17°C° 1,4 mm 5 m/S 717 mmHg 62%
    05:00 +16°C° 1,4 mm 5 m/S 717 mmHg 68%
    06:00 +15°C° 1,4 mm 6 m/S 718 mmHg 73%
    07:00 +15°C° 1,2 mm 6 m/S 718 mmHg 74%
    08:00 +15°C° 1,2 mm 6 m/S 718 mmHg 75%
    09:00 +15°C° 1,2 mm 5 m/S 719 mmHg 76%
    10:00 +15°C° 0,8 mm 5 m/S 718 mmHg 75%
    11:00 +16°C° 0,8 mm 5 m/S 718 mmHg 74%
    12:00 +16°C° 0,8 mm 5 m/S 718 mmHg 73%
    13:00 +16°C° 0,5 mm 5 m/S 717 mmHg 74%
    14:00 +16°C° 0,5 mm 5 m/S 717 mmHg 75%
    15:00 +16°C° 0,5 mm 5 m/S 716 mmHg 76%
    16:00 +16°C° 0,1 mm 5 m/S 716 mmHg 75%
    17:00 +17°C° 0,1 mm 4 m/S 717 mmHg 74%
    18:00 +18°C° 0,1 mm 4 m/S 717 mmHg 73%
    19:00 +18°C° 0,1 mm 4 m/S 717 mmHg 74%
    20:00 +17°C° 0,1 mm 4 m/S 718 mmHg 75%
    21:00 +17°C° 0,1 mm 4 m/S 718 mmHg 76%
    22:00 +17°C° 0,1 mm 4 m/S 718 mmHg 77%
    23:00 +17°C° 0,1 mm 4 m/S 718 mmHg 77%

    29 September, Freitag

    Zeit Temperatur Niederschläge Wind Luftdruck Luftfeuchtigkeit
    00:00 +17°C° 0,1 mm 4 m/S 718 mmHg 78%
    01:00 +17°C° 0,1 mm 4 m/S 717 mmHg 79%
    02:00 +15°C° 0,1 mm 5 m/S 717 mmHg 80%
    03:00 +15°C° 0,1 mm 5 m/S 717 mmHg 81%
    04:00 +15°C° 0,3 mm 4 m/S 717 mmHg 82%
    05:00 +15°C° 0,3 mm 4 m/S 717 mmHg 83%
    06:00 +16°C° 0,3 mm 3 m/S 718 mmHg 84%
    07:00 +15°C° 1,3 mm 5 m/S 718 mmHg 83%
    08:00 +16°C° 1,3 mm 6 m/S 718 mmHg 83%
    09:00 +16°C° 1,3 mm 7 m/S 719 mmHg 82%
    10:00 +18°C° 0,1 mm 7 m/S 719 mmHg 74%
    11:00 +21°C° 0,1 mm 7 m/S 719 mmHg 67%
    12:00 +22°C° 0,1 mm 7 m/S 718 mmHg 59%
    13:00 +24°C° 0 mm 7 m/S 718 mmHg 54%
    14:00 +26°C° 0 mm 6 m/S 717 mmHg 50%
    15:00 +27°C° 0 mm 6 m/S 717 mmHg 45%
    16:00 +26°C° 0,4 mm 7 m/S 717 mmHg 52%
    17:00 +24°C° 0,4 mm 7 m/S 717 mmHg 58%
    18:00 +22°C° 0,4 mm 8 m/S 717 mmHg 65%
    19:00 +21°C° 0,5 mm 8 m/S 718 mmHg 68%
    20:00 +20°C° 0,5 mm 8 m/S 718 mmHg 72%
    21:00 +17°C° 0,5 mm 8 m/S 719 mmHg 76%
    22:00 +17°C° 0,4 mm 9 m/S 719 mmHg 76%
    23:00 +16°C° 0,4 mm 9 m/S 719 mmHg 76%

    30 September, Samstag

    Zeit Temperatur Niederschläge Wind Luftdruck Luftfeuchtigkeit
    00:00 +16°C° 0,4 mm 9 m/S 719 mmHg 77%
    01:00 +16°C° 0,1 mm 9 m/S 719 mmHg 77%
    02:00 +16°C° 0,1 mm 8 m/S 719 mmHg 78%
    03:00 +16°C° 0,1 mm 8 m/S 719 mmHg 79%
    04:00 +16°C° 0,6 mm 8 m/S 719 mmHg 80%
    05:00 +16°C° 0,6 mm 8 m/S 719 mmHg 81%
    06:00 +16°C° 0,6 mm 8 m/S 720 mmHg 82%
    07:00 +16°C° 0,3 mm 8 m/S 720 mmHg 80%
    08:00 +17°C° 0,3 mm 9 m/S 721 mmHg 77%
    09:00 +17°C° 0,3 mm 9 m/S 721 mmHg 75%
    10:00 +17°C° 0,3 mm 9 m/S 721 mmHg 75%
    11:00 +16°C° 0,3 mm 9 m/S 721 mmHg 75%
    12:00 +16°C° 0,3 mm 8 m/S 720 mmHg 76%
    13:00 +16°C° 0,2 mm 8 m/S 720 mmHg 76%
    14:00 +16°C° 0,2 mm 9 m/S 720 mmHg 76%
    15:00 +16°C° 0,2 mm 9 m/S 719 mmHg 75%
    16:00 +16°C° 0 mm 8 m/S 720 mmHg 76%
    17:00 +16°C° 0 mm 7 m/S 720 mmHg 76%
    18:00 +16°C° 0 mm 7 m/S 721 mmHg 76%
    19:00 +15°C° 0,1 mm 7 m/S 722 mmHg 77%
    20:00 +15°C° 0,1 mm 7 m/S 722 mmHg 78%
    21:00 +15°C° 0,1 mm 8 m/S 723 mmHg 80%
    22:00 +13°C° 0 mm 8 m/S 722 mmHg 80%
    23:00 +13°C° 0 mm 8 m/S 722 mmHg 80%

    1 Oktober, Sonntag

    Zeit Temperatur Niederschläge Wind Luftdruck Luftfeuchtigkeit
    00:00 +13°C° 0 mm 8 m/S 722 mmHg 80%
    01:00 +14°C° 0 mm 7 m/S 721 mmHg 79%
    02:00 +14°C° 0 mm 7 m/S 721 mmHg 79%
    03:00 +13°C° 0 mm 6 m/S 721 mmHg 79%
    04:00 +13°C° 0 mm 6 m/S 721 mmHg 80%
    05:00 +13°C° 0 mm 5 m/S 721 mmHg 82%
    06:00 +12°C° 0 mm 5 m/S 722 mmHg 84%
    07:00 +14°C° 0 mm 6 m/S 722 mmHg 73%
    08:00 +16°C° 0 mm 8 m/S 722 mmHg 63%
    09:00 +17°C° 0 mm 9 m/S 723 mmHg 52%
    10:00 +19°C° 0 mm 9 m/S 722 mmHg 47%
    11:00 +22°C° 0 mm 9 m/S 722 mmHg 43%
    12:00 +23°C° 0 mm 9 m/S 722 mmHg 38%
    13:00 +24°C° 0 mm 8 m/S 721 mmHg 36%
    14:00 +26°C° 0 mm 8 m/S 720 mmHg 34%
    15:00 +26°C° 0 mm 8 m/S 720 mmHg 32%
    16:00 +26°C° 0 mm 7 m/S 720 mmHg 33%
    17:00 +24°C° 0 mm 7 m/S 720 mmHg 34%
    18:00 +23°C° 0 mm 6 m/S 720 mmHg 36%
    19:00 +22°C° 0 mm 6 m/S 721 mmHg 38%
    20:00 +21°C° 0 mm 6 m/S 721 mmHg 40%
    21:00 +20°C° 0 mm 6 m/S 722 mmHg 42%
    22:00 +20°C° 0 mm 6 m/S 722 mmHg 43%
    23:00 +19°C° 0 mm 6 m/S 721 mmHg 44%
    Mehr zeigen